Location: Eekst
(53.0191°N, 6.7366°E)
Time: 20:35:23
(UTC+00:00)

Meteor 1-25 Rocket - Pass Details

Date: 15 May 2026
Orbit: 834 x 892 km, 81.2° (Epoch: 8 June)

Event Time Altitude Azimuth Distance (km) Brightness Sun altitude
Rises 20:21:49 0° 347° (NNW) 3,456 8.5 -7.4°
Reaches altitude 10° 20:24:18 10° 350° (N) 2,506 7.6 -7.6°
Maximum altitude 20:29:58 69° 74° (ENE) 908 4.3 -8.2°
Drops below altitude 10° 20:35:31 10° 158° (SSE) 2,455 6.0 -8.8°
Enters shadow 20:35:43 - 158° (SSE) 2,531 6.1 -8.8°
